TimeCST,TemperatureF,Dew PointF,Humidity,Sea Level PressureIn,VisibilityMPH,Wind Direction,Wind SpeedMPH,Gust SpeedMPH,PrecipitationIn,Events,Conditions,WindDirDegrees,DateUTC
12:08 AM,33.8,33.8,100,29.96,2.5,North,18.4,-,0.01,Snow,Light Snow,350,2011-11-09 06:08:00
12:17 AM,33.8,33.8,100,29.96,3.0,North,18.4,25.3,0.02,Snow,Light Snow,350,2011-11-09 06:17:00
12:53 AM,34.0,33.1,96,29.99,4.0,NNW,20.7,28.8,0.04,Snow,Light Snow,340,2011-11-09 06:53:00
1:40 AM,35.6,33.8,93,29.99,5.0,North,25.3,35.7,0.04,Snow,Light Snow,350,2011-11-09 07:40:00
1:53 AM,35.1,33.1,92,30.01,5.0,North,26.5,36.8,0.05,Snow,Light Snow,350,2011-11-09 07:53:00
2:50 AM,35.6,35.6,100,30.02,6.0,NNW,26.5,34.5,0.08,Rain,Light Rain,340,2011-11-09 08:50:00
2:53 AM,36.0,36.0,100,30.04,7.0,NNW,25.3,33.4,0.08,Rain,Light Rain,340,2011-11-09 08:53:00
3:04 AM,35.6,35.6,100,30.03,6.0,NNW,23.0,32.2,0.01,Snow,Light Snow,340,2011-11-09 09:04:00
3:53 AM,36.0,36.0,100,30.06,10.0,NNW,19.6,-,0.05,Rain,Light Rain,340,2011-11-09 09:53:00
4:18 AM,37.4,37.4,100,30.06,10.0,NNW,24.2,32.2,0.00,,Overcast,340,2011-11-09 10:18:00
4:33 AM,37.4,37.4,100,30.06,10.0,North,18.4,28.8,0.00,,Overcast,350,2011-11-09 10:33:00
4:53 AM,37.0,37.0,100,30.09,10.0,NNW,12.7,-,0.00,,Overcast,330,2011-11-09 10:53:00
5:53 AM,37.0,37.0,100,30.12,10.0,NW,11.5,-,N/A,,Partly Cloudy,310,2011-11-09 11:53:00
6:53 AM,36.0,32.0,86,30.14,10.0,NW,13.8,-,N/A,,Clear,320,2011-11-09 12:53:00
8:53 AM,39.0,32.0,76,30.22,10.0,NW,12.7,-,N/A,,Clear,310,2011-11-09 14:53:00
9:53 AM,42.1,33.1,70,30.22,10.0,WNW,13.8,-,N/A,,Clear,300,2011-11-09 15:53:00
10:53 AM,42.8,33.8,70,30.22,10.0,WNW,12.7,-,N/A,,Clear,300,2011-11-09 16:53:00
11:53 AM,45.0,35.1,68,30.24,10.0,WNW,13.8,-,N/A,,Clear,290,2011-11-09 17:53:00
12:53 PM,46.4,35.6,66,30.21,10.0,WNW,17.3,-,N/A,,Clear,290,2011-11-09 18:53:00
1:53 PM,48.9,36.0,61,30.23,10.0,WNW,16.1,26.5,N/A,,Clear,300,2011-11-09 19:53:00
2:53 PM,50.0,34.0,54,30.23,10.0,NW,20.7,27.6,N/A,,Clear,310,2011-11-09 20:53:00
3:53 PM,48.9,32.0,52,30.24,10.0,NW,20.7,24.2,N/A,,Clear,310,2011-11-09 21:53:00
4:53 PM,46.9,32.0,56,30.26,10.0,NW,13.8,-,N/A,,Clear,310,2011-11-09 22:53:00
5:53 PM,44.1,28.0,53,30.27,10.0,WNW,13.8,-,N/A,,Clear,300,2011-11-09 23:53:00
6:53 PM,43.0,27.0,53,30.28,10.0,NW,13.8,-,N/A,,Clear,310,2011-11-10 00:53:00
7:53 PM,41.0,26.1,55,30.30,10.0,NW,13.8,-,N/A,,Clear,310,2011-11-10 01:53:00
8:53 PM,37.9,26.1,62,30.30,10.0,West,10.4,-,N/A,,Clear,280,2011-11-10 02:53:00
9:53 PM,37.0,25.0,62,30.31,10.0,West,11.5,-,N/A,,Clear,270,2011-11-10 03:53:00
10:53 PM,36.0,25.0,64,30.30,10.0,West,9.2,-,N/A,,Clear,280,2011-11-10 04:53:00
11:53 PM,36.0,24.1,62,30.29,10.0,West,11.5,-,N/A,,Clear,280,2011-11-10 05:53:00